| time (UTC) | temp F | wind direction | speed knots | gust knots | rain 1hr in | rain 24hr in | rain mn in | humidity % | barometer mb |
| 20260509091818 | 57 | 45 | 0.9 | 2.6 | 0.02 | 0.16 | 0.00 | 88 | 1011.0 |
| 20260509091318 | 58 | 22 | 0.0 | 5.2 | 0.02 | 0.16 | 0.00 | 87 | 1011.1 |
| 20260509090817 | 58 | 0 | 5.2 | 5.2 | 0.02 | 0.16 | 0.00 | 87 | 1011.1 |
| 20260509090317 | 58 | 0 | 0.0 | 3.5 | 0.02 | 0.16 | 0.00 | 87 | 1011.0 |
| 20260509085817 | 59 | 45 | 1.7 | 4.3 | 0.00 | 0.14 | 0.00 | 87 | 1011.0 |
| 20260509085316 | 59 | 0 | 0.9 | 5.2 | 0.00 | 0.14 | 0.00 | 87 | 1011.1 |
| 20260509084816 | 59 | 337 | 5.2 | 6.1 | 0.00 | 0.14 | 0.00 | 87 | 1011.1 |
| 20260509084316 | 59 | 22 | 1.7 | 3.5 | 0.00 | 0.14 | 0.00 | 88 | 1011.1 |
| 20260509083816 | 58 | 0 | 1.7 | 2.6 | 0.00 | 0.14 | 0.00 | 88 | 1011.1 |
| 20260509083315 | 58 | 45 | 0.9 | 2.6 | 0.00 | 0.14 | 0.00 | 88 | 1011.1 |
| 20260509082815 | 58 | 45 | 0.9 | 4.3 | 0.00 | 0.14 | 0.00 | 88 | 1011.1 |
| 20260509082315 | 58 | 45 | 0.9 | 5.2 | 0.00 | 0.14 | 0.00 | 88 | 1011.1 |
| 20260509081814 | 58 | 67 | 2.6 | 6.1 | 0.00 | 0.14 | 0.00 | 88 | 1011.2 |
| 20260509081314 | 58 | 45 | 3.5 | 3.5 | 0.00 | 0.14 | 0.00 | 88 | 1011.2 |
| 20260509080814 | 58 | 45 | 1.7 | 6.1 | 0.00 | 0.14 | 0.00 | 87 | 1011.2 |
| 20260509080314 | 58 | 45 | 2.6 | 5.2 | 0.00 | 0.14 | 0.00 | 87 | 1011.2 |
| 20260509075813 | 58 | 45 | 1.7 | 3.5 | 0.00 | 0.14 | 0.00 | 86 | 1011.2 |
| 20260509075313 | 58 | 67 | 3.5 | 4.3 | 0.00 | 0.14 | 0.00 | 86 | 1011.3 |
| 20260509074813 | 58 | 67 | 1.7 | 5.2 | 0.00 | 0.14 | 0.00 | 86 | 1011.2 |
| 20260509074312 | 58 | 45 | 2.6 | 7.0 | 0.00 | 0.14 | 0.00 | 86 | 1011.2 |
| 20260509073812 | 58 | 45 | 4.3 | 9.6 | 0.00 | 0.14 | 0.00 | 86 | 1011.2 |
| 20260509073312 | 58 | 45 | 2.6 | 5.2 | 0.00 | 0.14 | 0.00 | 86 | 1011.1 |
| 20260509072811 | 58 | 45 | 1.7 | 4.3 | 0.00 | 0.14 | 0.00 | 86 | 1011.1 |
| 20260509072311 | 58 | 67 | 2.6 | 4.3 | 0.00 | 0.14 | 0.00 | 85 | 1011.1 |
| 20260509071811 | 58 | 67 | 4.3 | 5.2 | 0.00 | 0.14 | 0.00 | 85 | 1011.1 |
| 20260509071311 | 58 | 67 | 2.6 | 4.3 | 0.00 | 0.14 | 0.00 | 85 | 1011.2 |
| 20260509070810 | 58 | 45 | 3.5 | 4.3 | 0.00 | 0.14 | 0.00 | 85 | 1011.2 |
| 20260509070310 | 58 | 45 | 0.9 | 4.3 | 0.00 | 0.14 | 0.00 | 84 | 1011.3 |
| 20260509065810 | 58 | 45 | 0.9 | 2.6 | 0.00 | 0.14 | 0.00 | 84 | 1011.3 |
| 20260509065309 | 58 | 45 | 1.7 | 4.3 | 0.00 | 0.14 | 0.00 | 84 | 1011.3 |
| 20260509064809 | 58 | 90 | 1.7 | 3.5 | 0.00 | 0.14 | 0.00 | 84 | 1011.2 |
| 20260509064309 | 58 | 67 | 0.0 | 1.7 | 0.00 | 0.14 | 0.00 | 84 | 1011.2 |
| 20260509063808 | 58 | 67 | 0.9 | 2.6 | 0.00 | 0.14 | 0.00 | 84 | 1011.2 |
| 20260509063308 | 58 | 67 | 0.9 | 1.7 | 0.00 | 0.14 | 0.00 | 83 | 1011.2 |
| 20260509062808 | 59 | 67 | 0.0 | 1.7 | 0.00 | 0.14 | 0.00 | 83 | 1011.2 |
| 20260509062308 | 59 | 67 | 0.9 | 1.7 | 0.00 | 0.14 | 0.00 | 83 | 1011.1 |
| 20260509061807 | 59 | 67 | 0.0 | 2.6 | 0.00 | 0.14 | 0.00 | 83 | 1011.2 |
| 20260509061307 | 59 | 67 | 0.0 | 1.7 | 0.00 | 0.14 | 0.00 | 83 | 1011.2 |
| 20260509060807 | 59 | 67 | 0.9 | 1.7 | 0.00 | 0.14 | 0.00 | 83 | 1011.2 |
| 20260509060306 | 60 | 67 | 0.0 | 1.7 | 0.00 | 0.14 | 0.00 | 83 | 1011.2 |
| 20260509055806 | 60 | 67 | 0.0 | 0.0 | 0.00 | 0.14 | 0.00 | 84 | 1011.2 |
| 20260509055307 | 60 | 67 | 0.0 | 1.7 | 0.00 | 0.14 | 0.00 | 84 | 1011.2 |
| 20260509054806 | 60 | 67 | 0.0 | 0.9 | 0.00 | 0.14 | 0.00 | 84 | 1011.1 |
| 20260509054305 | 59 | 67 | 0.9 | 1.7 | 0.00 | 0.14 | 0.00 | 84 | 1011.1 |
| 20260509053805 | 59 | 67 | 0.0 | 2.6 | 0.00 | 0.14 | 0.00 | 85 | 1011.1 |
| 20260509053305 | 59 | 67 | 0.0 | 0.0 | 0.00 | 0.14 | 0.00 | 85 | 1011.1 |
| 20260509052804 | 59 | 67 | 0.0 | 0.0 | 0.00 | 0.14 | 0.00 | 85 | 1011.1 |
| 20260509052307 | 59 | 67 | 0.0 | 0.0 | 0.00 | 0.14 | 0.00 | 84 | 1011.1 |
| 20260509051804 | 59 | 67 | 0.0 | 0.0 | 0.00 | 0.14 | 0.00 | 84 | 1011.1 |
| 20260509051304 | 59 | 67 | 0.0 | 0.0 | 0.00 | 0.14 | 0.00 | 84 | 1011.1 |
| 20260509050803 | 59 | 67 | 0.0 | 1.7 | 0.00 | 0.14 | 0.00 | 84 | 1011.1 |
| 20260509050303 | 59 | 67 | 0.9 | 1.7 | 0.00 | 0.14 | 0.00 | 84 | 1011.1 |
| 20260509045803 | 59 | 67 | 0.0 | 0.0 | 0.00 | 0.14 | 0.00 | 84 | 1011.2 |
| 20260509045306 | 59 | 67 | 0.0 | 0.9 | 0.00 | 0.14 | 0.00 | 85 | 1011.2 |
| 20260509044802 | 58 | 67 | 0.9 | 1.7 | 0.00 | 0.14 | 0.00 | 85 | 1011.2 |
| 20260509044302 | 58 | 67 | 0.0 | 0.9 | 0.00 | 0.14 | 0.00 | 85 | 1011.2 |
| 20260509043801 | 58 | 67 | 0.0 | 1.7 | 0.00 | 0.14 | 0.00 | 85 | 1011.2 |
| 20260509043301 | 58 | 67 | 1.7 | 1.7 | 0.00 | 0.14 | 0.00 | 85 | 1011.3 |
| 20260509042801 | 58 | 67 | 0.9 | 1.7 | 0.00 | 0.14 | 0.00 | 85 | 1011.2 |
| 20260509042301 | 57 | 67 | 0.0 | 0.9 | 0.00 | 0.14 | 0.00 | 86 | 1011.2 |
| 20260509041800 | 57 | 67 | 0.0 | 0.0 | 0.00 | 0.14 | 0.00 | 86 | 1011.2 |
| 20260509041300 | 57 | 67 | 0.0 | 0.9 | 0.00 | 0.14 | 0.00 | 86 | 1011.1 |
| 20260509040800 | 57 | 67 | 0.0 | 1.7 | 0.00 | 0.14 | 0.00 | 86 | 1011.1 |
| 20260509040259 | 57 | 67 | 0.9 | 0.9 | 0.00 | 0.14 | 0.00 | 86 | 1011.0 |
| 20260509035759 | 57 | 67 | 0.0 | 1.7 | 0.00 | 0.14 | 0.00 | 86 | 1011.1 |
| 20260509035259 | 57 | 67 | 0.9 | 2.6 | 0.00 | 0.14 | 0.00 | 86 | 1011.0 |
| 20260509034759 | 57 | 67 | 0.0 | 0.9 | 0.00 | 0.14 | 0.00 | 86 | 1011.1 |
| 20260509034258 | 57 | 67 | 0.0 | 0.9 | 0.00 | 0.14 | 0.00 | 86 | 1011.0 |
| 20260509033758 | 57 | 67 | 0.0 | 1.7 | 0.00 | 0.14 | 0.00 | 86 | 1010.9 |
| 20260509033258 | 57 | 67 | 0.0 | 1.7 | 0.00 | 0.14 | 0.00 | 86 | 1010.9 |
| 20260509032757 | 57 | 67 | 0.0 | 0.9 | 0.00 | 0.14 | 0.00 | 86 | 1011.0 |
| 20260509032257 | 56 | 67 | 0.0 | 1.7 | 0.00 | 0.14 | 0.00 | 86 | 1011.0 |
| 20260509031757 | 56 | 67 | 0.0 | 0.0 | 0.00 | 0.14 | 0.00 | 86 | 1011.0 |
| 20260509031256 | 56 | 67 | 0.0 | 0.9 | 0.00 | 0.14 | 0.00 | 86 | 1011.0 |
| 20260509030756 | 56 | 67 | 0.0 | 0.0 | 0.00 | 0.14 | 0.00 | 86 | 1011.0 |
| 20260509030256 | 56 | 67 | 0.0 | 1.7 | 0.00 | 0.14 | 0.00 | 86 | 1011.0 |
| 20260509025756 | 56 | 67 | 0.9 | 1.7 | 0.00 | 0.14 | 0.00 | 86 | 1010.9 |
| 20260509025255 | 56 | 67 | 0.0 | 0.0 | 0.00 | 0.14 | 0.00 | 86 | 1010.9 |
| 20260509024755 | 56 | 67 | 0.0 | 0.9 | 0.00 | 0.14 | 0.00 | 86 | 1010.9 |
| 20260509024255 | 56 | 67 | 0.9 | 1.7 | 0.00 | 0.14 | 0.00 | 86 | 1010.9 |
| 20260509023754 | 56 | 67 | 0.0 | 0.9 | 0.00 | 0.14 | 0.00 | 85 | 1010.9 |
| 20260509023254 | 56 | 67 | 0.0 | 0.0 | 0.00 | 0.14 | 0.00 | 85 | 1010.9 |
| 20260509022754 | 56 | 67 | 0.0 | 0.0 | 0.00 | 0.14 | 0.00 | 85 | 1010.8 |
| 20260509022254 | 56 | 67 | 0.0 | 0.0 | 0.00 | 0.14 | 0.00 | 85 | 1010.9 |
| 20260509021753 | 56 | 67 | 0.0 | 0.9 | 0.00 | 0.14 | 0.00 | 85 | 1010.9 |
| 20260509021253 | 56 | 67 | 0.0 | 0.9 | 0.00 | 0.14 | 0.00 | 85 | 1010.9 |
| 20260509020753 | 56 | 67 | 0.0 | 1.7 | 0.00 | 0.14 | 0.00 | 85 | 1010.8 |
| 20260509020252 | 56 | 67 | 0.0 | 0.0 | 0.00 | 0.14 | 0.00 | 85 | 1010.9 |
| 20260509015752 | 56 | 67 | 0.0 | 0.0 | 0.00 | 0.14 | 0.00 | 85 | 1010.9 |
| 20260509015252 | 56 | 67 | 0.0 | 0.0 | 0.00 | 0.14 | 0.00 | 86 | 1010.9 |
| 20260509014751 | 56 | 67 | 0.0 | 0.0 | 0.00 | 0.14 | 0.00 | 86 | 1011.0 |
| 20260509014251 | 56 | 67 | 0.0 | 0.0 | 0.00 | 0.14 | 0.00 | 86 | 1011.0 |
| 20260509013751 | 56 | 67 | 0.0 | 0.0 | 0.00 | 0.14 | 0.00 | 86 | 1011.1 |
| 20260509013251 | 56 | 67 | 0.0 | 0.0 | 0.00 | 0.14 | 0.00 | 85 | 1011.0 |
| 20260509012750 | 56 | 67 | 0.0 | 0.0 | 0.00 | 0.14 | 0.00 | 85 | 1011.1 |
| 20260509012250 | 56 | 67 | 0.0 | 0.9 | 0.00 | 0.14 | 0.00 | 85 | 1011.2 |
| 20260509011750 | 56 | 67 | 0.0 | 0.0 | 0.00 | 0.14 | 0.00 | 85 | 1011.1 |
| 20260509011250 | 56 | 67 | 0.0 | 0.0 | 0.00 | 0.14 | 0.00 | 85 | 1011.1 |
| 20260509010749 | 56 | 67 | 0.0 | 0.9 | 0.00 | 0.14 | 0.00 | 86 | 1011.2 |
| 20260509010249 | 56 | 67 | 0.9 | 1.7 | 0.00 | 0.14 | 0.00 | 86 | 1011.2 |
| 20260509005749 | 56 | 67 | 1.7 | 1.7 | 0.00 | 0.14 | 0.00 | 86 | 1011.2 |
| 20260509005248 | 57 | 67 | 0.0 | 0.9 | 0.00 | 0.14 | 0.00 | 86 | 1011.2 |
| 20260509004748 | 57 | 67 | 0.0 | 0.9 | 0.00 | 0.14 | 0.00 | 86 | 1011.2 |
| 20260509004248 | 57 | 67 | 0.0 | 1.7 | 0.00 | 0.14 | 0.00 | 86 | 1011.2 |
| 20260509003747 | 57 | 67 | 0.0 | 0.9 | 0.00 | 0.14 | 0.00 | 86 | 1011.3 |
| 20260509003247 | 57 | 67 | 0.0 | 1.7 | 0.00 | 0.14 | 0.00 | 86 | 1011.2 |
| 20260509002747 | 57 | 90 | 0.0 | 1.7 | 0.00 | 0.16 | 0.00 | 86 | 1011.2 |
| 20260509002246 | 57 | 90 | 0.0 | 2.6 | 0.00 | 0.16 | 0.00 | 86 | 1011.2 |
| 20260509001746 | 57 | 90 | 1.7 | 2.6 | 0.00 | 0.16 | 0.00 | 87 | 1011.2 |
| 20260509001246 | 57 | 90 | 2.6 | 3.5 | 0.00 | 0.16 | 0.00 | 87 | 1011.3 |
| 20260509000746 | 57 | 90 | 1.7 | 1.7 | 0.00 | 0.16 | 0.00 | 87 | 1011.2 |
| 20260509000245 | 57 | 67 | 0.9 | 1.7 | 0.00 | 0.16 | 0.00 | 87 | 1011.3 |
| 20260508235745 | 57 | 67 | 1.7 | 2.6 | 0.00 | 0.16 | 0.00 | 87 | 1011.3 |
| 20260508235245 | 57 | 112 | 0.0 | 1.7 | 0.00 | 0.16 | 0.00 | 87 | 1011.2 |
| 20260508234744 | 57 | 112 | 1.7 | 2.6 | 0.00 | 0.16 | 0.00 | 87 | 1011.2 |
| 20260508234244 | 57 | 135 | 0.0 | 0.9 | 0.00 | 0.16 | 0.00 | 87 | 1011.3 |
| 20260508233744 | 57 | 135 | 0.0 | 0.0 | 0.00 | 0.16 | 0.00 | 87 | 1011.2 |
| 20260508233244 | 57 | 135 | 0.0 | 1.7 | 0.00 | 0.16 | 0.00 | 87 | 1011.2 |
| 20260508232743 | 57 | 135 | 0.0 | 1.7 | 0.00 | 0.16 | 0.00 | 87 | 1011.2 |
| 20260508232243 | 57 | 135 | 0.0 | 1.7 | 0.00 | 0.16 | 0.00 | 87 | 1011.2 |
| 20260508231743 | 57 | 135 | 0.0 | 1.7 | 0.00 | 0.16 | 0.00 | 86 | 1011.2 |
| 20260508231242 | 57 | 202 | 0.0 | 1.7 | 0.00 | 0.16 | 0.00 | 86 | 1011.3 |
| 20260508230742 | 57 | 202 | 0.9 | 0.9 | 0.00 | 0.16 | 0.00 | 86 | 1011.4 |
| 20260508230242 | 57 | 202 | 0.0 | 0.0 | 0.02 | 0.16 | 0.00 | 86 | 1011.3 |
| 20260508225742 | 57 | 202 | 0.0 | 0.0 | 0.02 | 0.16 | 0.00 | 86 | 1011.4 |
| 20260508225241 | 57 | 202 | 0.0 | 0.0 | 0.02 | 0.16 | 0.00 | 86 | 1011.4 |
| 20260508224741 | 57 | 202 | 0.0 | 0.0 | 0.02 | 0.16 | 0.00 | 86 | 1011.4 |
| 20260508224241 | 57 | 202 | 0.0 | 0.9 | 0.02 | 0.16 | 0.00 | 86 | 1011.4 |
| 20260508223740 | 57 | 202 | 0.0 | 0.9 | 0.02 | 0.16 | 0.00 | 86 | 1011.5 |
| 20260508223240 | 57 | 202 | 0.9 | 1.7 | 0.02 | 0.16 | 0.00 | 85 | 1011.6 |
| 20260508222740 | 58 | 202 | 0.0 | 0.0 | 0.02 | 0.16 | 0.00 | 85 | 1011.6 |
| 20260508222240 | 58 | 202 | 0.0 | 0.0 | 0.02 | 0.16 | 0.00 | 85 | 1011.6 |
| 20260508221739 | 58 | 202 | 0.0 | 0.9 | 0.02 | 0.16 | 0.00 | 84 | 1011.6 |
| 20260508221239 | 58 | 202 | 0.0 | 0.9 | 0.02 | 0.16 | 0.00 | 84 | 1011.7 |
| 20260508220739 | 58 | 202 | 0.0 | 0.0 | 0.00 | 0.14 | 0.00 | 83 | 1011.7 |
| 20260508220238 | 58 | 202 | 0.0 | 0.0 | 0.00 | 0.14 | 0.00 | 83 | 1011.7 |
| 20260508215738 | 58 | 202 | 0.0 | 0.9 | 0.00 | 0.14 | 0.00 | 83 | 1011.8 |
| 20260508215238 | 58 | 202 | 0.0 | 0.0 | 0.00 | 0.14 | 0.00 | 83 | 1011.9 |
| 20260508214737 | 58 | 202 | 0.0 | 0.0 | 0.00 | 0.14 | 0.00 | 83 | 1011.8 |
| 20260508214237 | 58 | 202 | 0.0 | 0.0 | 0.00 | 0.14 | 0.00 | 83 | 1011.8 |
| 20260508213737 | 58 | 202 | 0.0 | 0.0 | 0.00 | 0.14 | 0.00 | 83 | 1011.8 |
| 20260508213237 | 58 | 202 | 0.0 | 0.0 | 0.00 | 0.14 | 0.00 | 82 | 1011.7 |
| 20260508212736 | 59 | 202 | 0.0 | 0.9 | 0.02 | 0.14 | 0.00 | 82 | 1011.9 |
| 20260508212236 | 59 | 202 | 0.0 | 0.0 | 0.02 | 0.14 | 0.00 | 82 | 1011.9 |
| 20260508211736 | 59 | 202 | 0.0 | 0.0 | 0.02 | 0.14 | 0.00 | 82 | 1011.9 |
| 20260508211235 | 59 | 202 | 0.0 | 0.0 | 0.02 | 0.14 | 0.00 | 82 | 1012.0 |
| 20260508210735 | 59 | 202 | 0.0 | 0.0 | 0.02 | 0.14 | 0.00 | 82 | 1012.0 |
| 20260508210235 | 59 | 202 | 0.0 | 0.0 | 0.04 | 0.14 | 0.00 | 82 | 1012.0 |
| 20260508205734 | 59 | 202 | 0.0 | 0.0 | 0.04 | 0.14 | 0.00 | 81 | 1012.0 |
| 20260508205234 | 60 | 202 | 0.0 | 0.0 | 0.04 | 0.14 | 0.00 | 80 | 1012.0 |
| 20260508204734 | 60 | 202 | 0.0 | 0.9 | 0.04 | 0.14 | 0.00 | 80 | 1012.0 |
| 20260508204234 | 60 | 202 | 0.0 | 0.9 | 0.04 | 0.14 | 0.00 | 79 | 1012.0 |
| 20260508203733 | 60 | 202 | 0.0 | 0.0 | 0.04 | 0.14 | 0.00 | 79 | 1012.1 |
| 20260508203233 | 60 | 202 | 0.0 | 0.9 | 0.02 | 0.12 | 0.00 | 78 | 1012.0 |
| 20260508202733 | 60 | 202 | 0.0 | 2.6 | 0.02 | 0.12 | 0.00 | 78 | 1012.1 |
| 20260508202232 | 61 | 202 | 0.9 | 1.7 | 0.02 | 0.12 | 0.00 | 78 | 1012.1 |
| 20260508201732 | 61 | 202 | 0.0 | 1.7 | 0.04 | 0.12 | 0.00 | 77 | 1012.1 |
| 20260508201232 | 61 | 202 | 0.0 | 4.3 | 0.04 | 0.12 | 0.00 | 77 | 1012.1 |
| 20260508200732 | 62 | 202 | 1.7 | 3.5 | 0.02 | 0.10 | 0.00 | 77 | 1012.1 |
| 20260508200231 | 62 | 225 | 0.9 | 3.5 | 0.02 | 0.10 | 0.00 | 77 | 1012.1 |
| 20260508195731 | 62 | 225 | 0.0 | 1.7 | 0.02 | 0.10 | 0.00 | 76 | 1012.0 |
| 20260508195231 | 62 | 225 | 0.0 | 2.6 | 0.02 | 0.10 | 0.00 | 77 | 1012.0 |
| 20260508194730 | 62 | 225 | 0.0 | 1.7 | 0.02 | 0.10 | 0.00 | 76 | 1011.9 |
| 20260508194230 | 62 | 225 | 0.0 | 2.6 | 0.02 | 0.10 | 0.00 | 76 | 1011.9 |
| 20260508193730 | 62 | 225 | 0.0 | 2.6 | 0.02 | 0.10 | 0.00 | 75 | 1011.9 |
| 20260508193229 | 63 | 292 | 0.0 | 0.0 | 0.02 | 0.10 | 0.00 | 74 | 1011.9 |
| 20260508192729 | 63 | 292 | 0.0 | 0.0 | 0.02 | 0.10 | 0.00 | 72 | 1011.9 |
| 20260508192229 | 63 | 292 | 0.0 | 0.0 | 0.02 | 0.10 | 0.00 | 71 | 1011.8 |
| 20260508191729 | 64 | 292 | 0.0 | 0.0 | 0.00 | 0.08 | 0.00 | 71 | 1011.8 |
| 20260508191228 | 64 | 292 | 0.0 | 1.7 | 0.00 | 0.08 | 0.00 | 70 | 1011.6 |
| 20260508190728 | 64 | 292 | 1.7 | 1.7 | 0.00 | 0.08 | 0.00 | 69 | 1011.7 |
| 20260508190228 | 64 | 292 | 0.0 | 1.7 | 0.00 | 0.08 | 0.00 | 69 | 1011.7 |
| 20260508185727 | 64 | 292 | 1.7 | 1.7 | 0.00 | 0.08 | 0.00 | 69 | 1011.7 |
| 20260508185227 | 64 | 292 | 0.0 | 1.7 | 0.00 | 0.08 | 0.00 | 70 | 1011.6 |
| 20260508184727 | 64 | 292 | 1.7 | 1.7 | 0.00 | 0.08 | 0.00 | 70 | 1011.5 |
| 20260508184227 | 64 | 292 | 0.0 | 0.9 | 0.00 | 0.08 | 0.00 | 70 | 1011.6 |
| 20260508183726 | 63 | 292 | 0.0 | 0.9 | 0.00 | 0.08 | 0.00 | 70 | 1011.5 |
| 20260508183226 | 64 | 292 | 0.0 | 1.7 | 0.00 | 0.08 | 0.00 | 70 | 1011.5 |
| 20260508182726 | 64 | 0 | 0.0 | 0.0 | 0.00 | 0.08 | 0.00 | 70 | 1011.4 |
| 20260508182225 | 64 | 0 | 0.0 | 1.7 | 0.00 | 0.08 | 0.00 | 68 | 1011.3 |
| 20260508181725 | 64 | 292 | 0.9 | 1.7 | 0.00 | 0.08 | 0.00 | 68 | 1011.3 |
| 20260508181225 | 64 | 337 | 0.0 | 0.0 | 0.00 | 0.08 | 0.00 | 67 | 1011.1 |
| 20260508180725 | 64 | 337 | 0.0 | 0.0 | 0.00 | 0.08 | 0.00 | 67 | 1011.0 |
| 20260508180224 | 64 | 337 | 0.0 | 0.9 | 0.00 | 0.08 | 0.00 | 67 | 1011.0 |
| 20260508175724 | 64 | 337 | 0.0 | 1.7 | 0.00 | 0.08 | 0.00 | 67 | 1010.9 |
| 20260508175224 | 64 | 292 | 0.0 | 0.0 | 0.00 | 0.08 | 0.00 | 67 | 1010.8 |
| 20260508174723 | 64 | 292 | 0.0 | 1.7 | 0.00 | 0.08 | 0.00 | 66 | 1010.8 |
| 20260508174223 | 64 | 292 | 0.0 | 1.7 | 0.00 | 0.08 | 0.00 | 67 | 1010.8 |
| 20260508173723 | 64 | 292 | 1.7 | 1.7 | 0.00 | 0.08 | 0.00 | 67 | 1010.7 |
| 20260508173226 | 64 | 292 | 0.0 | 3.5 | 0.00 | 0.08 | 0.00 | 67 | 1010.7 |
| 20260508172722 | 64 | 292 | 0.0 | 2.6 | 0.00 | 0.08 | 0.00 | 67 | 1010.7 |
| 20260508172222 | 64 | 247 | 0.9 | 6.1 | 0.00 | 0.08 | 0.00 | 67 | 1010.7 |
| 20260508171722 | 64 | 292 | 1.7 | 6.1 | 0.00 | 0.08 | 0.00 | 67 | 1010.7 |
| 20260508171221 | 64 | 292 | 2.6 | 5.2 | 0.00 | 0.08 | 0.00 | 67 | 1010.6 |
| 20260508170721 | 65 | 247 | 1.7 | 4.3 | 0.00 | 0.08 | 0.00 | 67 | 1010.5 |
| 20260508170221 | 65 | 292 | 2.6 | 7.8 | 0.00 | 0.08 | 0.00 | 67 | 1010.3 |
| 20260508165720 | 66 | 292 | 0.9 | 7.0 | 0.00 | 0.08 | 0.00 | 66 | 1010.2 |
| 20260508165220 | 66 | 292 | 7.0 | 11.3 | 0.00 | 0.08 | 0.00 | 65 | 1010.2 |
| 20260508164720 | 67 | 247 | 1.7 | 5.2 | 0.00 | 0.08 | 0.00 | 64 | 1010.2 |
| 20260508164220 | 68 | 292 | 1.7 | 6.1 | 0.00 | 0.08 | 0.00 | 63 | 1010.2 |
| 20260508163719 | 68 | 292 | 0.0 | 4.3 | 0.00 | 0.08 | 0.00 | 63 | 1010.0 |
| 20260508163219 | 68 | 292 | 3.5 | 7.8 | 0.00 | 0.08 | 0.00 | 62 | 1009.9 |
| 20260508162719 | 69 | 292 | 2.6 | 4.3 | 0.00 | 0.08 | 0.00 | 61 | 1009.9 |
| 20260508162218 | 69 | 292 | 4.3 | 5.2 | 0.00 | 0.08 | 0.00 | 60 | 1009.9 |
| 20260508161718 | 70 | 292 | 0.0 | 5.2 | 0.00 | 0.08 | 0.00 | 59 | 1009.9 |
| 20260508161218 | 70 | 292 | 3.5 | 3.5 | 0.00 | 0.08 | 0.00 | 58 | 1009.9 |
| 20260508160717 | 71 | 292 | 1.7 | 5.2 | 0.00 | 0.08 | 0.00 | 57 | 1009.9 |
| 20260508160217 | 71 | 315 | 2.6 | 4.3 | 0.00 | 0.08 | 0.00 | 57 | 1009.9 |
| 20260508155717 | 71 | 292 | 2.6 | 7.0 | 0.00 | 0.08 | 0.00 | 55 | 1010.0 |
| 20260508155217 | 72 | 292 | 0.0 | 3.5 | 0.00 | 0.08 | 0.00 | 55 | 1009.8 |
| 20260508154716 | 72 | 247 | 1.7 | 3.5 | 0.00 | 0.08 | 0.00 | 54 | 1009.8 |
| 20260508154216 | 72 | 247 | 1.7 | 3.5 | 0.00 | 0.08 | 0.00 | 54 | 1009.8 |
| 20260508153716 | 73 | 315 | 0.0 | 1.7 | 0.00 | 0.08 | 0.00 | 53 | 1009.8 |
| 20260508153215 | 74 | 315 | 0.0 | 4.3 | 0.00 | 0.08 | 0.00 | 52 | 1009.9 |
| 20260508152715 | 75 | 225 | 1.7 | 4.3 | 0.00 | 0.08 | 0.00 | 51 | 1009.9 |
| 20260508152215 | 76 | 225 | 4.3 | 4.3 | 0.00 | 0.08 | 0.00 | 50 | 1009.9 |
| 20260508151715 | 78 | 247 | 0.0 | 5.2 | 0.00 | 0.08 | 0.00 | 49 | 1010.0 |
| 20260508151214 | 79 | 292 | 1.7 | 5.2 | 0.00 | 0.08 | 0.00 | 49 | 1010.2 |
| 20260508150714 | 79 | 225 | 0.9 | 2.6 | 0.00 | 0.08 | 0.00 | 50 | 1010.1 |
| 20260508150214 | 78 | 292 | 0.0 | 1.7 | 0.00 | 0.08 | 0.00 | 52 | 1010.4 |
| 20260508145713 | 77 | 315 | 0.9 | 3.5 | 0.00 | 0.08 | 0.00 | 52 | 1010.4 |
| 20260508145213 | 77 | 315 | 0.9 | 4.3 | 0.00 | 0.08 | 0.00 | 52 | 1010.5 |
| 20260508144713 | 77 | 292 | 1.7 | 2.6 | 0.00 | 0.08 | 0.00 | 52 | 1010.4 |
| 20260508144212 | 77 | 247 | 0.0 | 2.6 | 0.00 | 0.08 | 0.00 | 52 | 1010.4 |
| 20260508143712 | 77 | 247 | 0.0 | 3.5 | 0.00 | 0.08 | 0.00 | 54 | 1010.3 |
| 20260508143212 | 76 | 292 | 0.0 | 1.7 | 0.00 | 0.08 | 0.00 | 54 | 1010.4 |
| 20260508142712 | 75 | 292 | 0.0 | 3.5 | 0.00 | 0.08 | 0.00 | 56 | 1010.3 |
| 20260508142211 | 75 | 247 | 0.0 | 3.5 | 0.00 | 0.08 | 0.00 | 57 | 1010.3 |
| 20260508141711 | 74 | 247 | 0.9 | 5.2 | 0.00 | 0.08 | 0.00 | 58 | 1010.3 |
| 20260508141211 | 73 | 202 | 0.9 | 5.2 | 0.00 | 0.08 | 0.00 | 59 | 1010.4 |
| 20260508140710 | 71 | 225 | 3.5 | 5.2 | 0.00 | 0.08 | 0.00 | 61 | 1010.5 |
| 20260508140210 | 70 | 247 | 0.0 | 6.1 | 0.00 | 0.08 | 0.00 | 61 | 1010.6 |
| 20260508135710 | 70 | 225 | 4.3 | 7.0 | 0.00 | 0.08 | 0.00 | 62 | 1010.6 |
| 20260508135209 | 69 | 202 | 1.7 | 6.1 | 0.00 | 0.08 | 0.00 | 64 | 1010.7 |
| 20260508134709 | 69 | 202 | 4.3 | 8.7 | 0.00 | 0.08 | 0.00 | 65 | 1010.9 |
| 20260508134209 | 68 | 225 | 2.6 | 3.5 | 0.00 | 0.08 | 0.00 | 65 | 1010.7 |
| 20260508133732 | 68 | 225 | 0.9 | 9.6 | 0.00 | 0.08 | 0.00 | 64 | 1010.8 |
| 20260508133208 | 69 | 225 | 7.8 | 9.6 | 0.00 | 0.08 | 0.00 | 63 | 1011.1 |
| 20260508132708 | 70 | 247 | 5.2 | 8.7 | 0.00 | 0.08 | 0.00 | 61 | 1011.2 |
| 20260508132208 | 70 | 292 | 1.7 | 6.1 | 0.00 | 0.08 | 0.00 | 60 | 1011.0 |
| 20260508131707 | 71 | 225 | 3.5 | 7.0 | 0.00 | 0.08 | 0.00 | 61 | 1011.1 |
| 20260508131207 | 71 | 315 | 5.2 | 5.2 | 0.00 | 0.08 | 0.00 | 61 | 1011.1 |
| 20260508130707 | 71 | 292 | 1.7 | 9.6 | 0.02 | 0.08 | 0.00 | 61 | 1011.2 |
| 20260508130207 | 72 | 292 | 6.1 | 9.6 | 0.04 | 0.08 | 0.00 | 63 | 1011.1 |
| 20260508125706 | 72 | 292 | 1.7 | 7.0 | 0.06 | 0.08 | 0.00 | 63 | 1011.1 |
| 20260508125206 | 72 | 292 | 2.6 | 8.7 | 0.06 | 0.08 | 0.00 | 62 | 1011.2 |
| 20260508124706 | 71 | 292 | 3.5 | 4.3 | 0.06 | 0.08 | 0.00 | 64 | 1011.2 |
| 20260508124205 | 70 | 0 | 0.0 | 0.0 | 0.06 | 0.08 | 0.00 | 66 | 1011.1 |
| 20260508123705 | 69 | 0 | 0.0 | 1.7 | 0.06 | 0.08 | 0.00 | 65 | 1011.2 |
| 20260508123205 | 68 | 0 | 0.0 | 1.7 | 0.06 | 0.08 | 0.00 | 66 | 1011.3 |
| 20260508122704 | 68 | 337 | 0.9 | 1.7 | 0.06 | 0.08 | 0.00 | 67 | 1011.3 |
| 20260508122204 | 67 | 292 | 0.0 | 0.9 | 0.06 | 0.08 | 0.00 | 68 | 1011.4 |
| 20260508121704 | 68 | 292 | 0.9 | 0.9 | 0.06 | 0.08 | 0.00 | 67 | 1011.4 |
| 20260508121204 | 68 | 292 | 0.0 | 2.6 | 0.04 | 0.06 | 0.00 | 65 | 1011.5 |
| 20260508120703 | 70 | 225 | 2.6 | 4.3 | 0.02 | 0.04 | 0.00 | 62 | 1011.5 |
| 20260508120203 | 73 | 247 | 2.6 | 7.0 | 0.00 | 0.02 | 0.00 | 56 | 1011.5 |
| 20260508115703 | 75 | 292 | 0.0 | 7.0 | 0.00 | 0.02 | 0.00 | 50 | 1011.5 |
| 20260508115202 | 75 | 292 | 1.7 | 7.8 | 0.00 | 0.02 | 0.00 | 49 | 1011.4 |
| 20260508114702 | 76 | 292 | 0.9 | 9.6 | 0.00 | 0.02 | 0.00 | 48 | 1011.5 |
| 20260508114202 | 77 | 292 | 4.3 | 7.0 | 0.00 | 0.02 | 0.00 | 48 | 1011.4 |
| 20260508113702 | 77 | 292 | 0.9 | 7.8 | 0.00 | 0.02 | 0.00 | 47 | 1011.5 |
| 20260508113201 | 78 | 292 | 1.7 | 7.0 | 0.00 | 0.02 | 0.00 | 48 | 1011.4 |
| 20260508112701 | 78 | 292 | 2.6 | 7.8 | 0.00 | 0.02 | 0.00 | 48 | 1011.4 |
| 20260508112201 | 78 | 292 | 1.7 | 7.0 | 0.00 | 0.02 | 0.00 | 48 | 1011.4 |
| 20260508111700 | 78 | 292 | 4.3 | 5.2 | 0.00 | 0.02 | 0.00 | 48 | 1011.5 |
| 20260508111200 | 78 | 292 | 0.9 | 8.7 | 0.00 | 0.02 | 0.00 | 48 | 1011.5 |
| 20260508110700 | 78 | 292 | 0.0 | 2.6 | 0.00 | 0.02 | 0.00 | 48 | 1011.5 |
| 20260508110200 | 78 | 292 | 0.0 | 4.3 | 0.00 | 0.02 | 0.00 | 48 | 1011.5 |
| 20260508105659 | 78 | 292 | 3.5 | 8.7 | 0.00 | 0.02 | 0.00 | 48 | 1011.5 |
| 20260508105159 | 78 | 292 | 2.6 | 5.2 | 0.00 | 0.02 | 0.00 | 49 | 1011.3 |
| 20260508104659 | 77 | 292 | 0.9 | 5.2 | 0.00 | 0.02 | 0.00 | 49 | 1011.4 |
| 20260508104158 | 77 | 292 | 1.7 | 9.6 | 0.00 | 0.02 | 0.00 | 48 | 1011.4 |
| 20260508103658 | 77 | 292 | 4.3 | 5.2 | 0.00 | 0.02 | 0.00 | 49 | 1011.5 |
| 20260508103158 | 77 | 247 | 0.9 | 7.0 | 0.00 | 0.02 | 0.00 | 49 | 1011.4 |
| 20260508102657 | 77 | 292 | 3.5 | 7.8 | 0.00 | 0.02 | 0.00 | 49 | 1011.5 |
| 20260508102157 | 77 | 292 | 2.6 | 7.0 | 0.00 | 0.02 | 0.00 | 49 | 1011.5 |
| 20260508101657 | 77 | 292 | 7.0 | 7.0 | 0.00 | 0.02 | 0.00 | 50 | 1011.5 |
| 20260508101157 | 77 | 292 | 5.2 | 12.2 | 0.00 | 0.02 | 0.00 | 50 | 1011.6 |
| 20260508100656 | 76 | 292 | 3.5 | 10.4 | 0.00 | 0.02 | 0.00 | 51 | 1011.5 |
| 20260508100156 | 76 | 292 | 1.7 | 5.2 | 0.00 | 0.02 | 0.00 | 52 | 1011.6 |
| 20260508095656 | 75 | 292 | 0.9 | 7.8 | 0.00 | 0.02 | 0.00 | 53 | 1011.6 |
| 20260508095155 | 75 | 0 | 1.7 | 7.0 | 0.00 | 0.02 | 0.00 | 53 | 1011.7 |
| 20260508094655 | 75 | 292 | 0.0 | 6.1 | 0.00 | 0.02 | 0.00 | 53 | 1011.8 |
| 20260508094155 | 74 | 292 | 5.2 | 7.0 | 0.00 | 0.02 | 0.00 | 53 | 1011.9 |
| 20260508093655 | 74 | 292 | 6.1 | 8.7 | 0.00 | 0.02 | 0.00 | 53 | 1012.1 |
| 20260508093154 | 75 | 292 | 3.5 | 7.0 | 0.00 | 0.02 | 0.00 | 53 | 1012.1 |
| 20260508092654 | 75 | 292 | 2.6 | 7.0 | 0.00 | 0.02 | 0.00 | 53 | 1012.1 |
| 20260508092154 | 74 | 292 | 3.5 | 6.1 | 0.00 | 0.02 | 0.00 | 53 | 1012.0 |